owner,sensor,date,latitude,longitude,sea_water_turbidity,qcFlag 
SCCF RECON,ioos:station:SCCF:16:1,2009-01-01T00:00:00Z,26.4345,-81.9647,5.16,1111122 
SCCF RECON,ioos:station:SCCF:16:1,2009-01-01T01:00:00Z,26.4345,-81.9647,4.95,1111122 
SCCF RECON,ioos:station:SCCF:16:1,2009-01-01T02:00:00Z,26.4345,-81.9647,4.54,1111122 
SCCF RECON,ioos:station:SCCF:16:1,2009-01-01T03:00:00Z,26.4345,-81.9647,4.02,1111122 
SCCF RECON,ioos:station:SCCF:16:1,2009-01-01T04:00:00Z,26.4345,-81.9647,4.41,1111122 
SCCF RECON,ioos:station:SCCF:16:1,2009-01-01T05:00:00Z,26.4345,-81.9647,4.92,1111122 
SCCF RECON,ioos:station:SCCF:16:1,2009-01-01T06:00:00Z,26.4345,-81.9647,5.7,1111122 
SCCF RECON,ioos:station:SCCF:16:1,2009-01-01T07:00:00Z,26.4345,-81.9647,4.66,1111122 
SCCF RECON,ioos:station:SCCF:16:1,2009-01-01T08:00:00Z,26.4345,-81.9647,4.86,1111122 
SCCF RECON,ioos:station:SCCF:16:1,2009-01-01T09:00:00Z,26.4345,-81.9647,4.84,1111122 
SCCF RECON,ioos:station:SCCF:16:1,2009-01-01T10:00:00Z,26.4345,-81.9647,4.49,1111122 
SCCF RECON,ioos:station:SCCF:16:1,2009-01-01T11:00:00Z,26.4345,-81.9647,4.79,1111122 
SCCF RECON,ioos:station:SCCF:16:1,2009-01-01T12:00:00Z,26.4345,-81.9647,4.65,1111122 
SCCF RECON,ioos:station:SCCF:16:1,2009-01-01T13:00:00Z,26.4345,-81.9647,5.4,1111122 
SCCF RECON,ioos:station:SCCF:16:1,2009-01-01T14:00:00Z,26.4345,-81.9647,5.92,1111122 
SCCF RECON,ioos:station:SCCF:16:1,2009-01-01T15:00:00Z,26.4345,-81.9647,5.49,1111122 
SCCF RECON,ioos:station:SCCF:16:1,2009-01-01T16:00:00Z,26.4345,-81.9647,5.55,1111122 
SCCF RECON,ioos:station:SCCF:16:1,2009-01-01T17:00:00Z,26.4345,-81.9647,5.43,1111122 
SCCF RECON,ioos:station:SCCF:16:1,2009-01-01T18:00:00Z,26.4345,-81.9647,5.58,1111122 
SCCF RECON,ioos:station:SCCF:16:1,2009-01-01T19:00:00Z,26.4345,-81.9647,5.48,1111122 
SCCF RECON,ioos:station:SCCF:16:1,2009-01-01T20:00:00Z,26.4345,-81.9647,5.04,1111122 
SCCF RECON,ioos:station:SCCF:16:1,2009-01-01T21:00:00Z,26.4345,-81.9647,5.27,1111122 
SCCF RECON,ioos:station:SCCF:16:1,2009-01-01T22:00:00Z,26.4345,-81.9647,5.17,1111122 
SCCF RECON,ioos:station:SCCF:16:1,2009-01-01T23:00:00Z,26.4345,-81.9647,5.17,1111122 
SCCF RECON,ioos:station:SCCF:16:1,2009-01-02T00:00:00Z,26.4345,-81.9647,5.23,1111122 
SCCF RECON,ioos:station:SCCF:16:1,2009-01-02T01:00:00Z,26.4345,-81.9647,5.04,1111122 
SCCF RECON,ioos:station:SCCF:16:1,2009-01-02T02:00:00Z,26.4345,-81.9647,4.46,1111122 
SCCF RECON,ioos:station:SCCF:16:1,2009-01-02T03:00:00Z,26.4345,-81.9647,4.85,1111122 
SCCF RECON,ioos:station:SCCF:16:1,2009-01-02T04:00:00Z,26.4345,-81.9647,4.75,1111122 
SCCF RECON,ioos:station:SCCF:16:1,2009-01-02T05:00:00Z,26.4345,-81.9647,4.42,1111122 
SCCF RECON,ioos:station:SCCF:16:1,2009-01-02T06:00:00Z,26.4345,-81.9647,4.53,1111122 
SCCF RECON,ioos:station:SCCF:16:1,2009-01-02T07:00:00Z,26.4345,-81.9647,5.23,1111122 
SCCF RECON,ioos:station:SCCF:16:1,2009-01-02T08:00:00Z,26.4345,-81.9647,5.23,1111122 
SCCF RECON,ioos:station:SCCF:16:1,2009-01-02T09:00:00Z,26.4345,-81.9647,4.97,1111122 
SCCF RECON,ioos:station:SCCF:16:1,2009-01-02T10:00:00Z,26.4345,-81.9647,5.03,1111122 
SCCF RECON,ioos:station:SCCF:16:1,2009-01-02T11:00:00Z,26.4345,-81.9647,4.91,1111122 
SCCF RECON,ioos:station:SCCF:16:1,2009-01-02T12:00:00Z,26.4345,-81.9647,4.92,1111122 
SCCF RECON,ioos:station:SCCF:16:1,2009-01-02T13:00:00Z,26.4345,-81.9647,4.91,1111122 
SCCF RECON,ioos:station:SCCF:16:1,2009-01-02T14:00:00Z,26.4345,-81.9647,5.19,1111122 
SCCF RECON,ioos:station:SCCF:16:1,2009-01-02T15:00:00Z,26.4345,-81.9647,5.1,1111122 
SCCF RECON,ioos:station:SCCF:16:1,2009-01-02T16:00:00Z,26.4345,-81.9647,4.61,1111122 
SCCF RECON,ioos:station:SCCF:16:1,2009-01-02T17:00:00Z,26.4345,-81.9647,4.9,1111122 
SCCF RECON,ioos:station:SCCF:16:1,2009-01-02T18:00:00Z,26.4345,-81.9647,4.4,1111122 
SCCF RECON,ioos:station:SCCF:16:1,2009-01-02T19:00:00Z,26.4345,-81.9647,4.62,1111122 
SCCF RECON,ioos:station:SCCF:16:1,2009-01-02T20:00:00Z,26.4345,-81.9647,4.53,1111122 
SCCF RECON,ioos:station:SCCF:16:1,2009-01-02T21:00:00Z,26.4345,-81.9647,4.56,1111122 
SCCF RECON,ioos:station:SCCF:16:1,2009-01-02T22:00:00Z,26.4345,-81.9647,4.65,1111122 
SCCF RECON,ioos:station:SCCF:16:1,2009-01-02T23:00:00Z,26.4345,-81.9647,4.7,1111122 
SCCF RECON,ioos:station:SCCF:16:1,2009-01-03T00:00:00Z,26.4345,-81.9647,4.91,1111122 
SCCF RECON,ioos:station:SCCF:16:1,2009-01-03T01:00:00Z,26.4345,-81.9647,4.5,1111122 
SCCF RECON,ioos:station:SCCF:16:1,2009-01-03T02:00:00Z,26.4345,-81.9647,4.24,1111122 
SCCF RECON,ioos:station:SCCF:16:1,2009-01-03T03:00:00Z,26.4345,-81.9647,4.55,1111122 
SCCF RECON,ioos:station:SCCF:16:1,2009-01-03T04:00:00Z,26.4345,-81.9647,4.08,1111122 
SCCF RECON,ioos:station:SCCF:16:1,2009-01-03T05:00:00Z,26.4345,-81.9647,3.95,1111122 
SCCF RECON,ioos:station:SCCF:16:1,2009-01-03T06:00:00Z,26.4345,-81.9647,3.77,1111122 
SCCF RECON,ioos:station:SCCF:16:1,2009-01-03T07:00:00Z,26.4345,-81.9647,4.53,1111122 
SCCF RECON,ioos:station:SCCF:16:1,2009-01-03T08:00:00Z,26.4345,-81.9647,3.48,1111122 
SCCF RECON,ioos:station:SCCF:16:1,2009-01-03T09:00:00Z,26.4345,-81.9647,3.72,1111122 
SCCF RECON,ioos:station:SCCF:16:1,2009-01-03T10:00:00Z,26.4345,-81.9647,4.16,1111122 
SCCF RECON,ioos:station:SCCF:16:1,2009-01-03T11:00:00Z,26.4345,-81.9647,4.2,1111122 
SCCF RECON,ioos:station:SCCF:16:1,2009-01-03T12:00:00Z,26.4345,-81.9647,4.17,1111122 
SCCF RECON,ioos:station:SCCF:16:1,2009-01-03T13:00:00Z,26.4345,-81.9647,4.16,1111122 
SCCF RECON,ioos:station:SCCF:16:1,2009-01-03T14:00:00Z,26.4345,-81.9647,4.49,1111122 
SCCF RECON,ioos:station:SCCF:16:1,2009-01-03T15:00:00Z,26.4345,-81.9647,4.66,1111122 
SCCF RECON,ioos:station:SCCF:16:1,2009-01-03T16:00:00Z,26.4345,-81.9647,4.6,1111122 
SCCF RECON,ioos:station:SCCF:16:1,2009-01-03T17:00:00Z,26.4345,-81.9647,5.32,1111122 
SCCF RECON,ioos:station:SCCF:16:1,2009-01-03T18:00:00Z,26.4345,-81.9647,4.27,1111122 
SCCF RECON,ioos:station:SCCF:16:1,2009-01-03T19:00:00Z,26.4345,-81.9647,4.44,1111122 
SCCF RECON,ioos:station:SCCF:16:1,2009-01-03T20:00:00Z,26.4345,-81.9647,4.63,1111122 
SCCF RECON,ioos:station:SCCF:16:1,2009-01-03T21:00:00Z,26.4345,-81.9647,4.11,1111122 
SCCF RECON,ioos:station:SCCF:16:1,2009-01-03T22:00:00Z,26.4345,-81.9647,4.15,1111122 
SCCF RECON,ioos:station:SCCF:16:1,2009-01-03T23:00:00Z,26.4345,-81.9647,4.6,1111122 
SCCF RECON,ioos:station:SCCF:16:1,2009-01-04T00:00:00Z,26.4345,-81.9647,4.73,1111122 
SCCF RECON,ioos:station:SCCF:16:1,2009-01-04T01:00:00Z,26.4345,-81.9647,4.46,1111122 
SCCF RECON,ioos:station:SCCF:16:1,2009-01-04T02:00:00Z,26.4345,-81.9647,3.85,1111122 
SCCF RECON,ioos:station:SCCF:16:1,2009-01-04T03:00:00Z,26.4345,-81.9647,4.28,1111122 
SCCF RECON,ioos:station:SCCF:16:1,2009-01-04T04:00:00Z,26.4345,-81.9647,3.97,1111122 
SCCF RECON,ioos:station:SCCF:16:1,2009-01-04T05:00:00Z,26.4345,-81.9647,3.93,1111122 
SCCF RECON,ioos:station:SCCF:16:1,2009-01-04T06:00:00Z,26.4345,-81.9647,3.62,1111122 
SCCF RECON,ioos:station:SCCF:16:1,2009-01-04T07:00:00Z,26.4345,-81.9647,4.0,1111122 
SCCF RECON,ioos:station:SCCF:16:1,2009-01-04T08:00:00Z,26.4345,-81.9647,4.37,1111122 
SCCF RECON,ioos:station:SCCF:16:1,2009-01-04T09:00:00Z,26.4345,-81.9647,4.8,1111122 
SCCF RECON,ioos:station:SCCF:16:1,2009-01-04T10:00:00Z,26.4345,-81.9647,4.35,1111122 
SCCF RECON,ioos:station:SCCF:16:1,2009-01-04T11:00:00Z,26.4345,-81.9647,4.15,1111122 
SCCF RECON,ioos:station:SCCF:16:1,2009-01-04T12:00:00Z,26.4345,-81.9647,3.88,1111122 
SCCF RECON,ioos:station:SCCF:16:1,2009-01-04T13:00:00Z,26.4345,-81.9647,3.75,1111122 
SCCF RECON,ioos:station:SCCF:16:1,2009-01-04T14:00:00Z,26.4345,-81.9647,3.54,1111122 
SCCF RECON,ioos:station:SCCF:16:1,2009-01-04T15:00:00Z,26.4345,-81.9647,3.52,1111122 
SCCF RECON,ioos:station:SCCF:16:1,2009-01-04T16:00:00Z,26.4345,-81.9647,3.59,1111122 
SCCF RECON,ioos:station:SCCF:16:1,2009-01-04T17:00:00Z,26.4345,-81.9647,3.67,1111122 
SCCF RECON,ioos:station:SCCF:16:1,2009-01-04T18:00:00Z,26.4345,-81.9647,3.93,1111122 
SCCF RECON,ioos:station:SCCF:16:1,2009-01-04T19:00:00Z,26.4345,-81.9647,4.19,1111122 
SCCF RECON,ioos:station:SCCF:16:1,2009-01-04T20:00:00Z,26.4345,-81.9647,4.16,1111122 
SCCF RECON,ioos:station:SCCF:16:1,2009-01-04T21:00:00Z,26.4345,-81.9647,3.64,1111122 
SCCF RECON,ioos:station:SCCF:16:1,2009-01-04T22:00:00Z,26.4345,-81.9647,4.02,1111122 
SCCF RECON,ioos:station:SCCF:16:1,2009-01-04T23:00:00Z,26.4345,-81.9647,4.38,1111122 
SCCF RECON,ioos:station:SCCF:16:1,2009-01-05T00:00:00Z,26.4345,-81.9647,4.62,1111122 
SCCF RECON,ioos:station:SCCF:16:1,2009-01-05T01:00:00Z,26.4345,-81.9647,4.32,1111122 
SCCF RECON,ioos:station:SCCF:16:1,2009-01-05T02:00:00Z,26.4345,-81.9647,3.75,1111122 
SCCF RECON,ioos:station:SCCF:16:1,2009-01-05T03:00:00Z,26.4345,-81.9647,3.76,1111122 
SCCF RECON,ioos:station:SCCF:16:1,2009-01-05T04:00:00Z,26.4345,-81.9647,4.28,1111122 
SCCF RECON,ioos:station:SCCF:16:1,2009-01-05T05:00:00Z,26.4345,-81.9647,4.15,1111122 
SCCF RECON,ioos:station:SCCF:16:1,2009-01-05T06:00:00Z,26.4345,-81.9647,4.79,1111122 
SCCF RECON,ioos:station:SCCF:16:1,2009-01-05T07:00:00Z,26.4345,-81.9647,4.72,1111122 
SCCF RECON,ioos:station:SCCF:16:1,2009-01-05T08:00:00Z,26.4345,-81.9647,4.89,1111122 
SCCF RECON,ioos:station:SCCF:16:1,2009-01-05T09:00:00Z,26.4345,-81.9647,4.48,1111122 
SCCF RECON,ioos:station:SCCF:16:1,2009-01-05T10:00:00Z,26.4345,-81.9647,4.37,1111122 
SCCF RECON,ioos:station:SCCF:16:1,2009-01-05T11:00:00Z,26.4345,-81.9647,4.38,1111122 
SCCF RECON,ioos:station:SCCF:16:1,2009-01-05T12:00:00Z,26.4345,-81.9647,4.48,1111122 
SCCF RECON,ioos:station:SCCF:16:1,2009-01-05T13:00:00Z,26.4345,-81.9647,4.45,1111122 
SCCF RECON,ioos:station:SCCF:16:1,2009-01-05T14:00:00Z,26.4345,-81.9647,4.12,1111122 
SCCF RECON,ioos:station:SCCF:16:1,2009-01-05T15:00:00Z,26.4345,-81.9647,4.14,1111122 
SCCF RECON,ioos:station:SCCF:16:1,2009-01-05T16:00:00Z,26.4345,-81.9647,4.06,1111122 
SCCF RECON,ioos:station:SCCF:16:1,2009-01-05T17:00:00Z,26.4345,-81.9647,3.99,1111122 
SCCF RECON,ioos:station:SCCF:16:1,2009-01-05T18:00:00Z,26.4345,-81.9647,3.99,1111122 
SCCF RECON,ioos:station:SCCF:16:1,2009-01-05T19:00:00Z,26.4345,-81.9647,3.96,1111122 
SCCF RECON,ioos:station:SCCF:16:1,2009-01-05T20:00:00Z,26.4345,-81.9647,3.54,1111122 
SCCF RECON,ioos:station:SCCF:16:1,2009-01-05T21:00:00Z,26.4345,-81.9647,3.11,1111122 
SCCF RECON,ioos:station:SCCF:16:1,2009-01-05T22:00:00Z,26.4345,-81.9647,3.56,1111122 
SCCF RECON,ioos:station:SCCF:16:1,2009-01-05T23:00:00Z,26.4345,-81.9647,4.01,1111122 
SCCF RECON,ioos:station:SCCF:16:1,2009-01-06T00:00:00Z,26.4345,-81.9647,4.07,1111122 
SCCF RECON,ioos:station:SCCF:16:1,2009-01-06T01:00:00Z,26.4345,-81.9647,4.11,1111122 
SCCF RECON,ioos:station:SCCF:16:1,2009-01-06T02:00:00Z,26.4345,-81.9647,3.97,1111122 
SCCF RECON,ioos:station:SCCF:16:1,2009-01-06T03:00:00Z,26.4345,-81.9647,3.73,1111122 
SCCF RECON,ioos:station:SCCF:16:1,2009-01-06T04:00:00Z,26.4345,-81.9647,3.44,1111122 
SCCF RECON,ioos:station:SCCF:16:1,2009-01-06T05:00:00Z,26.4345,-81.9647,3.85,1111122 
SCCF RECON,ioos:station:SCCF:16:1,2009-01-06T06:00:00Z,26.4345,-81.9647,4.35,1111122 
SCCF RECON,ioos:station:SCCF:16:1,2009-01-06T07:00:00Z,26.4345,-81.9647,4.81,1111122 
SCCF RECON,ioos:station:SCCF:16:1,2009-01-06T08:00:00Z,26.4345,-81.9647,5.63,1111122 
SCCF RECON,ioos:station:SCCF:16:1,2009-01-06T09:00:00Z,26.4345,-81.9647,5.11,1111122 
SCCF RECON,ioos:station:SCCF:16:1,2009-01-06T10:00:00Z,26.4345,-81.9647,4.68,1111122 
SCCF RECON,ioos:station:SCCF:16:1,2009-01-06T11:00:00Z,26.4345,-81.9647,4.87,1111122 
SCCF RECON,ioos:station:SCCF:16:1,2009-01-06T12:00:00Z,26.4345,-81.9647,4.43,1111122 
SCCF RECON,ioos:station:SCCF:16:1,2009-01-06T13:00:00Z,26.4345,-81.9647,4.54,1111122 
SCCF RECON,ioos:station:SCCF:16:1,2009-01-06T14:00:00Z,26.4345,-81.9647,4.52,1111122 
SCCF RECON,ioos:station:SCCF:16:1,2009-01-06T15:00:00Z,26.4345,-81.9647,4.51,1111122 
SCCF RECON,ioos:station:SCCF:16:1,2009-01-06T16:00:00Z,26.4345,-81.9647,4.22,1111122 
SCCF RECON,ioos:station:SCCF:16:1,2009-01-06T17:00:00Z,26.4345,-81.9647,4.08,1111122 
SCCF RECON,ioos:station:SCCF:16:1,2009-01-06T18:00:00Z,26.4345,-81.9647,3.99,1111122 
SCCF RECON,ioos:station:SCCF:16:1,2009-01-06T19:00:00Z,26.4345,-81.9647,3.78,1111122 
SCCF RECON,ioos:station:SCCF:16:1,2009-01-06T20:00:00Z,26.4345,-81.9647,3.82,1111122 
SCCF RECON,ioos:station:SCCF:16:1,2009-01-06T21:00:00Z,26.4345,-81.9647,3.74,1111122 
SCCF RECON,ioos:station:SCCF:16:1,2009-01-06T22:00:00Z,26.4345,-81.9647,4.05,1111122 
SCCF RECON,ioos:station:SCCF:16:1,2009-01-06T23:00:00Z,26.4345,-81.9647,4.58,1111122 
SCCF RECON,ioos:station:SCCF:16:1,2009-01-07T00:00:00Z,26.4345,-81.9647,4.6,1111122 
SCCF RECON,ioos:station:SCCF:16:1,2009-01-07T01:00:00Z,26.4345,-81.9647,4.63,1111122 
SCCF RECON,ioos:station:SCCF:16:1,2009-01-07T02:00:00Z,26.4345,-81.9647,4.55,1111122 
SCCF RECON,ioos:station:SCCF:16:1,2009-01-07T03:00:00Z,26.4345,-81.9647,4.41,1111122 
SCCF RECON,ioos:station:SCCF:16:1,2009-01-07T04:00:00Z,26.4345,-81.9647,4.17,1111122 
SCCF RECON,ioos:station:SCCF:16:1,2009-01-07T05:00:00Z,26.4345,-81.9647,4.05,1111122 
SCCF RECON,ioos:station:SCCF:16:1,2009-01-07T06:00:00Z,26.4345,-81.9647,4.29,1111122 
SCCF RECON,ioos:station:SCCF:16:1,2009-01-07T07:00:00Z,26.4345,-81.9647,5.98,1111122 
SCCF RECON,ioos:station:SCCF:16:1,2009-01-07T08:00:00Z,26.4345,-81.9647,6.79,1111122 
SCCF RECON,ioos:station:SCCF:16:1,2009-01-07T09:00:00Z,26.4345,-81.9647,6.91,1111122 
SCCF RECON,ioos:station:SCCF:16:1,2009-01-07T10:00:00Z,26.4345,-81.9647,6.9,1111122 
SCCF RECON,ioos:station:SCCF:16:1,2009-01-07T11:00:00Z,26.4345,-81.9647,7.29,1111122 
SCCF RECON,ioos:station:SCCF:16:1,2009-01-07T12:00:00Z,26.4345,-81.9647,5.33,1111122 
SCCF RECON,ioos:station:SCCF:16:1,2009-01-07T13:00:00Z,26.4345,-81.9647,5.68,1111122 
SCCF RECON,ioos:station:SCCF:16:1,2009-01-07T14:00:00Z,26.4345,-81.9647,6.69,1111122 
SCCF RECON,ioos:station:SCCF:16:1,2009-01-07T15:00:00Z,26.4345,-81.9647,6.13,1111122 
SCCF RECON,ioos:station:SCCF:16:1,2009-01-07T16:00:00Z,26.4345,-81.9647,5.89,1111122 
SCCF RECON,ioos:station:SCCF:16:1,2009-01-07T17:00:00Z,26.4345,-81.9647,5.71,1111122 
SCCF RECON,ioos:station:SCCF:16:1,2009-01-07T18:00:00Z,26.4345,-81.9647,6.87,1111122 
SCCF RECON,ioos:station:SCCF:16:1,2009-01-07T19:00:00Z,26.4345,-81.9647,6.82,1111122 
SCCF RECON,ioos:station:SCCF:16:1,2009-01-07T20:00:00Z,26.4345,-81.9647,6.65,1111122 
SCCF RECON,ioos:station:SCCF:16:1,2009-01-07T21:00:00Z,26.4345,-81.9647,6.02,1111122 
SCCF RECON,ioos:station:SCCF:16:1,2009-01-07T22:00:00Z,26.4345,-81.9647,6.0,1111122 
SCCF RECON,ioos:station:SCCF:16:1,2009-01-07T23:00:00Z,26.4345,-81.9647,5.43,1111122 
SCCF RECON,ioos:station:SCCF:16:1,2009-01-08T00:00:00Z,26.4345,-81.9647,5.52,1111122 
SCCF RECON,ioos:station:SCCF:16:1,2009-01-08T01:00:00Z,26.4345,-81.9647,5.9,1111122 
SCCF RECON,ioos:station:SCCF:16:1,2009-01-08T02:00:00Z,26.4345,-81.9647,7.08,1111122 
SCCF RECON,ioos:station:SCCF:16:1,2009-01-08T03:00:00Z,26.4345,-81.9647,12.8,1111122 
SCCF RECON,ioos:station:SCCF:16:1,2009-01-08T04:00:00Z,26.4345,-81.9647,5.55,1111122 
SCCF RECON,ioos:station:SCCF:16:1,2009-01-08T05:00:00Z,26.4345,-81.9647,5.77,1111122 
SCCF RECON,ioos:station:SCCF:16:1,2009-01-08T06:00:00Z,26.4345,-81.9647,7.13,1111122 
SCCF RECON,ioos:station:SCCF:16:1,2009-01-08T07:00:00Z,26.4345,-81.9647,6.91,1111122 
SCCF RECON,ioos:station:SCCF:16:1,2009-01-08T08:00:00Z,26.4345,-81.9647,9.43,1111122 
SCCF RECON,ioos:station:SCCF:16:1,2009-01-08T09:00:00Z,26.4345,-81.9647,9.98,1111122 
SCCF RECON,ioos:station:SCCF:16:1,2009-01-08T10:00:00Z,26.4345,-81.9647,9.98,1111122 
SCCF RECON,ioos:station:SCCF:16:1,2009-01-08T11:00:00Z,26.4345,-81.9647,8.04,1111122 
SCCF RECON,ioos:station:SCCF:16:1,2009-01-08T12:00:00Z,26.4345,-81.9647,16.21,1111122 
SCCF RECON,ioos:station:SCCF:16:1,2009-01-08T13:00:00Z,26.4345,-81.9647,6.78,1111122 
SCCF RECON,ioos:station:SCCF:16:1,2009-01-08T14:00:00Z,26.4345,-81.9647,9.07,1111122 
SCCF RECON,ioos:station:SCCF:16:1,2009-01-08T15:00:00Z,26.4345,-81.9647,19.64,1111122 
SCCF RECON,ioos:station:SCCF:16:1,2009-01-08T16:00:00Z,26.4345,-81.9647,17.22,1111122 
SCCF RECON,ioos:station:SCCF:16:1,2009-01-08T17:00:00Z,26.4345,-81.9647,12.93,1111122 
SCCF RECON,ioos:station:SCCF:16:1,2009-01-08T18:00:00Z,26.4345,-81.9647,11.56,1111122 
SCCF RECON,ioos:station:SCCF:16:1,2009-01-08T19:00:00Z,26.4345,-81.9647,10.2,1111122 
SCCF RECON,ioos:station:SCCF:16:1,2009-01-08T20:00:00Z,26.4345,-81.9647,8.87,1111122 
SCCF RECON,ioos:station:SCCF:16:1,2009-01-08T21:00:00Z,26.4345,-81.9647,7.78,1111122 
SCCF RECON,ioos:station:SCCF:16:1,2009-01-08T22:00:00Z,26.4345,-81.9647,9.29,1111122 
SCCF RECON,ioos:station:SCCF:16:1,2009-01-08T23:00:00Z,26.4345,-81.9647,7.25,1111122 
SCCF RECON,ioos:station:SCCF:16:1,2009-01-09T00:00:00Z,26.4345,-81.9647,12.97,1111122 
SCCF RECON,ioos:station:SCCF:16:1,2009-01-09T01:00:00Z,26.4345,-81.9647,12.39,1111122 
SCCF RECON,ioos:station:SCCF:16:1,2009-01-09T02:00:00Z,26.4345,-81.9647,14.45,1111122 
SCCF RECON,ioos:station:SCCF:16:1,2009-01-09T03:00:00Z,26.4345,-81.9647,14.65,1111122 
SCCF RECON,ioos:station:SCCF:16:1,2009-01-09T04:00:00Z,26.4345,-81.9647,13.7,1111122 
SCCF RECON,ioos:station:SCCF:16:1,2009-01-09T05:00:00Z,26.4345,-81.9647,12.57,1111122 
SCCF RECON,ioos:station:SCCF:16:1,2009-01-09T06:00:00Z,26.4345,-81.9647,9.79,1111122 
SCCF RECON,ioos:station:SCCF:16:1,2009-01-09T07:00:00Z,26.4345,-81.9647,9.53,1111122 
SCCF RECON,ioos:station:SCCF:16:1,2009-01-09T08:00:00Z,26.4345,-81.9647,11.79,1111122 
SCCF RECON,ioos:station:SCCF:16:1,2009-01-09T09:00:00Z,26.4345,-81.9647,13.66,1111122 
SCCF RECON,ioos:station:SCCF:16:1,2009-01-09T10:00:00Z,26.4345,-81.9647,12.55,1111122 
SCCF RECON,ioos:station:SCCF:16:1,2009-01-09T11:00:00Z,26.4345,-81.9647,12.54,1111122 
SCCF RECON,ioos:station:SCCF:16:1,2009-01-09T12:00:00Z,26.4345,-81.9647,8.85,1111122 
SCCF RECON,ioos:station:SCCF:16:1,2009-01-09T13:00:00Z,26.4345,-81.9647,6.96,1111122 
SCCF RECON,ioos:station:SCCF:16:1,2009-01-09T14:00:00Z,26.4345,-81.9647,8.86,1111122 
SCCF RECON,ioos:station:SCCF:16:1,2009-01-09T15:00:00Z,26.4345,-81.9647,9.33,1111122 
SCCF RECON,ioos:station:SCCF:16:1,2009-01-09T16:00:00Z,26.4345,-81.9647,8.99,1111122 
SCCF RECON,ioos:station:SCCF:16:1,2009-01-09T17:00:00Z,26.4345,-81.9647,8.96,1111122 
SCCF RECON,ioos:station:SCCF:16:1,2009-01-09T18:00:00Z,26.4345,-81.9647,9.0,1111122 
SCCF RECON,ioos:station:SCCF:16:1,2009-01-09T19:00:00Z,26.4345,-81.9647,7.08,1111122 
SCCF RECON,ioos:station:SCCF:16:1,2009-01-09T20:00:00Z,26.4345,-81.9647,6.94,1111122 
SCCF RECON,ioos:station:SCCF:16:1,2009-01-09T21:00:00Z,26.4345,-81.9647,6.3,1111122 
SCCF RECON,ioos:station:SCCF:16:1,2009-01-09T22:00:00Z,26.4345,-81.9647,5.88,1111122 
SCCF RECON,ioos:station:SCCF:16:1,2009-01-09T23:00:00Z,26.4345,-81.9647,6.16,1111122 
SCCF RECON,ioos:station:SCCF:16:1,2009-01-10T00:00:00Z,26.4345,-81.9647,5.36,1111122 
SCCF RECON,ioos:station:SCCF:16:1,2009-01-10T01:00:00Z,26.4345,-81.9647,4.89,1111122 
SCCF RECON,ioos:station:SCCF:16:1,2009-01-10T02:00:00Z,26.4345,-81.9647,7.46,1111122 
SCCF RECON,ioos:station:SCCF:16:1,2009-01-10T03:00:00Z,26.4345,-81.9647,6.52,1111122 
SCCF RECON,ioos:station:SCCF:16:1,2009-01-10T04:00:00Z,26.4345,-81.9647,6.13,1111122 
SCCF RECON,ioos:station:SCCF:16:1,2009-01-10T05:00:00Z,26.4345,-81.9647,6.01,1111122 
SCCF RECON,ioos:station:SCCF:16:1,2009-01-10T06:00:00Z,26.4345,-81.9647,6.13,1111122 
SCCF RECON,ioos:station:SCCF:16:1,2009-01-10T07:00:00Z,26.4345,-81.9647,5.91,1111122 
SCCF RECON,ioos:station:SCCF:16:1,2009-01-10T08:00:00Z,26.4345,-81.9647,6.93,1111122 
SCCF RECON,ioos:station:SCCF:16:1,2009-01-10T09:00:00Z,26.4345,-81.9647,10.0,1111122 
SCCF RECON,ioos:station:SCCF:16:1,2009-01-10T10:00:00Z,26.4345,-81.9647,11.78,1111122 
SCCF RECON,ioos:station:SCCF:16:1,2009-01-10T11:00:00Z,26.4345,-81.9647,11.86,1111122 
SCCF RECON,ioos:station:SCCF:16:1,2009-01-10T12:00:00Z,26.4345,-81.9647,10.89,1111122 
SCCF RECON,ioos:station:SCCF:16:1,2009-01-10T13:00:00Z,26.4345,-81.9647,7.9,1111122 
SCCF RECON,ioos:station:SCCF:16:1,2009-01-10T14:00:00Z,26.4345,-81.9647,6.92,1111122 
SCCF RECON,ioos:station:SCCF:16:1,2009-01-10T15:00:00Z,26.4345,-81.9647,7.25,1111122 
SCCF RECON,ioos:station:SCCF:16:1,2009-01-10T16:00:00Z,26.4345,-81.9647,7.99,1111122 
SCCF RECON,ioos:station:SCCF:16:1,2009-01-10T17:00:00Z,26.4345,-81.9647,7.89,1111122 
SCCF RECON,ioos:station:SCCF:16:1,2009-01-10T18:00:00Z,26.4345,-81.9647,7.39,1111122 
SCCF RECON,ioos:station:SCCF:16:1,2009-01-10T19:00:00Z,26.4345,-81.9647,6.96,1111122 
SCCF RECON,ioos:station:SCCF:16:1,2009-01-10T20:00:00Z,26.4345,-81.9647,6.07,1111122 
SCCF RECON,ioos:station:SCCF:16:1,2009-01-10T21:00:00Z,26.4345,-81.9647,5.5,1111122 
SCCF RECON,ioos:station:SCCF:16:1,2009-01-10T22:00:00Z,26.4345,-81.9647,5.11,1111122 
SCCF RECON,ioos:station:SCCF:16:1,2009-01-10T23:00:00Z,26.4345,-81.9647,4.93,1111122 
SCCF RECON,ioos:station:SCCF:16:1,2009-01-11T00:00:00Z,26.4345,-81.9647,5.18,1111122 
SCCF RECON,ioos:station:SCCF:16:1,2009-01-11T01:00:00Z,26.4345,-81.9647,4.81,1111122 
SCCF RECON,ioos:station:SCCF:16:1,2009-01-11T02:00:00Z,26.4345,-81.9647,4.8,1111122 
SCCF RECON,ioos:station:SCCF:16:1,2009-01-11T03:00:00Z,26.4345,-81.9647,5.83,1111122 
SCCF RECON,ioos:station:SCCF:16:1,2009-01-11T04:00:00Z,26.4345,-81.9647,6.03,1111122 
SCCF RECON,ioos:station:SCCF:16:1,2009-01-11T05:00:00Z,26.4345,-81.9647,6.08,1111122 
SCCF RECON,ioos:station:SCCF:16:1,2009-01-11T06:00:00Z,26.4345,-81.9647,5.47,1111122 
SCCF RECON,ioos:station:SCCF:16:1,2009-01-11T07:00:00Z,26.4345,-81.9647,4.76,1111122 
SCCF RECON,ioos:station:SCCF:16:1,2009-01-11T08:00:00Z,26.4345,-81.9647,5.89,1111122 
SCCF RECON,ioos:station:SCCF:16:1,2009-01-11T09:00:00Z,26.4345,-81.9647,7.56,1111122 
SCCF RECON,ioos:station:SCCF:16:1,2009-01-11T10:00:00Z,26.4345,-81.9647,9.76,1111122 
SCCF RECON,ioos:station:SCCF:16:1,2009-01-11T11:00:00Z,26.4345,-81.9647,11.08,1111122 
SCCF RECON,ioos:station:SCCF:16:1,2009-01-11T12:00:00Z,26.4345,-81.9647,11.58,1111122 
SCCF RECON,ioos:station:SCCF:16:1,2009-01-11T13:00:00Z,26.4345,-81.9647,10.8,1111122 
SCCF RECON,ioos:station:SCCF:16:1,2009-01-11T14:00:00Z,26.4345,-81.9647,10.25,1111122 
SCCF RECON,ioos:station:SCCF:16:1,2009-01-11T15:00:00Z,26.4345,-81.9647,8.53,1111122 
SCCF RECON,ioos:station:SCCF:16:1,2009-01-11T16:00:00Z,26.4345,-81.9647,8.16,1111122 
SCCF RECON,ioos:station:SCCF:16:1,2009-01-11T17:00:00Z,26.4345,-81.9647,5.93,1111122 
SCCF RECON,ioos:station:SCCF:16:1,2009-01-11T18:00:00Z,26.4345,-81.9647,6.21,1111122 
SCCF RECON,ioos:station:SCCF:16:1,2009-01-11T19:00:00Z,26.4345,-81.9647,5.73,1111122 
SCCF RECON,ioos:station:SCCF:16:1,2009-01-11T20:00:00Z,26.4345,-81.9647,6.14,1111122 
SCCF RECON,ioos:station:SCCF:16:1,2009-01-11T21:00:00Z,26.4345,-81.9647,5.43,1111122 
SCCF RECON,ioos:station:SCCF:16:1,2009-01-11T22:00:00Z,26.4345,-81.9647,5.12,1111122 
SCCF RECON,ioos:station:SCCF:16:1,2009-01-11T23:00:00Z,26.4345,-81.9647,5.31,1111122 
SCCF RECON,ioos:station:SCCF:16:1,2009-01-12T00:00:00Z,26.4345,-81.9647,5.09,1111122 
SCCF RECON,ioos:station:SCCF:16:1,2009-01-12T01:00:00Z,26.4345,-81.9647,4.98,1111122 
SCCF RECON,ioos:station:SCCF:16:1,2009-01-12T02:00:00Z,26.4345,-81.9647,4.68,1111122 
SCCF RECON,ioos:station:SCCF:16:1,2009-01-12T03:00:00Z,26.4345,-81.9647,4.67,1111122 
SCCF RECON,ioos:station:SCCF:16:1,2009-01-12T04:00:00Z,26.4345,-81.9647,5.04,1111122 
SCCF RECON,ioos:station:SCCF:16:1,2009-01-12T05:00:00Z,26.4345,-81.9647,5.31,1111122 
SCCF RECON,ioos:station:SCCF:16:1,2009-01-12T06:00:00Z,26.4345,-81.9647,5.63,1111122 
SCCF RECON,ioos:station:SCCF:16:1,2009-01-12T07:00:00Z,26.4345,-81.9647,5.16,1111122 
SCCF RECON,ioos:station:SCCF:16:1,2009-01-12T08:00:00Z,26.4345,-81.9647,4.9,1111122 
SCCF RECON,ioos:station:SCCF:16:1,2009-01-12T09:00:00Z,26.4345,-81.9647,5.14,1111122 
SCCF RECON,ioos:station:SCCF:16:1,2009-01-12T10:00:00Z,26.4345,-81.9647,6.3,1111122 
SCCF RECON,ioos:station:SCCF:16:1,2009-01-12T11:00:00Z,26.4345,-81.9647,8.61,1111122 
SCCF RECON,ioos:station:SCCF:16:1,2009-01-12T12:00:00Z,26.4345,-81.9647,9.05,1111122 
SCCF RECON,ioos:station:SCCF:16:1,2009-01-12T13:00:00Z,26.4345,-81.9647,9.39,1111122 